This demonstration page uses our WeatherBlox Daily Observations layout. Learn more.

Left ArrowRight Arrow

36.17497, -115.13722

Hourly Observations for March 20, 2015

Temp ( °F °C ) Dew Point ( °F °C ) Humidity (%) Winds ( mph kmh ) Pressure ( in mb ) Visibility ( mi km ) Precip ( " mm )
12:53 am 00:53 Clear 58 14.4 20 -6.7 23 23 NW 8 13 30.06 1018 10 16 0.00 0.00
1:53 am 01:53 Clear 58 14.4 17 -8.3 20 20 WNW 9 15 30.08 1019 10 16 0.00 0.00
2:53 am 02:53 Clear 57 13.9 17 -8.3 21 21 W 5 7 30.09 1019 10 16 0.00 0.00
3:53 am 03:53 Clear 59 15 14 -10 17 17 E 3 6 30.09 1019 10 16 0.00 0.00
4:53 am 04:53 Clear 55 12.8 18 -7.8 23 23 Calm 30.11 1020 10 16 0.00 0.00
5:53 am 05:53 Clear 53 11.7 19 -7.2 26 26 NNW 3 6 30.12 1020 10 16 0.00 0.00
6:53 am 06:53 Sunny 52 11.1 20 -6.7 28 28 NW 3 6 30.15 1021 10 16 0.00 0.00
7:53 am 07:53 Sunny 56 13.3 19 -7.2 24 24 NNW 5 7 30.16 1021 10 16 0.00 0.00
8:53 am 08:53 Sunny 62 16.7 15 -9.4 16 16 Calm 30.17 1022 10 16 0.00 0.00
9:53 am 09:53 Sunny 68 20 11 -11.7 11 11 Calm 30.17 1022 10 16 0.00 0.00
10:53 am 10:53 Sunny 69 20.6 7 -13.9 9 9 Calm 30.17 1022 10 16 0.00 0.00
11:53 am 11:53 Sunny 72 22.2 7 -13.9 8 8 VRB 5 7 30.15 1021 10 16 0.00 0.00
12:53 pm 12:53 Sunny 74 23.3 9 -12.8 8 8 VRB 3 6 30.13 1020 10 16 0.00 0.00
1:53 pm 13:53 Sunny 77 25 11 -11.7 8 8 Calm 30.09 1019 10 16 0.00 0.00
2:53 pm 14:53 Sunny 78 25.6 12 -11.1 8 8 VRB 3 6 30.06 1018 10 16 0.00 0.00
3:53 pm 15:53 Sunny 78 25.6 11 -11.7 8 8 VRB 3 6 30.04 1017 10 16 0.00 0.00
4:53 pm 16:53 Sunny 80 26.7 10 -12.2 7 7 ENE 6 9 30.03 1017 10 16 0.00 0.00
5:53 pm 17:53 Sunny 78 25.6 11 -11.7 8 8 SE 8 13 30.03 1017 10 16 0.00 0.00
6:53 pm 18:53 Clear 76 24.4 12 -11.1 9 9 E 5 7 30.03 1017 10 16 0.00 0.00
7:53 pm 19:53 Clear 72 22.2 13 -10.6 10 10 ESE 3 6 30.04 1017 10 16 0.00 0.00
8:53 pm 20:53 Clear 69 20.6 20 -6.7 15 15 WNW 5 7 30.06 1018 10 16 0.00 0.00
9:53 pm 21:53 Clear 66 18.9 25 -3.9 21 21 NW 3 6 30.06 1018 10 16 0.00 0.00
10:53 pm 22:53 Clear 64 17.8 23 -5 21 21 WNW 5 7 30.07 1018 10 16 0.00 0.00
11:53 pm 23:53 Clear 62 16.7 24 -4.4 23 23 N 3 6 30.06 1018 10 16 0.00 0.00

Powered by AerisWeather